Flag for Kuwait Weather past 2 weeks in Kuwait City, Kuwait

Now
99 °F

Sunny.


Feels Like: 94 °F
Forecast: 90 / 107 °F
Wind: 15 mph from Northwest

Location: Kuwait International Airport

Current Time: Jul 6, 2015 at 8:06:39 AM

Latest Report: Jul 6, 2015 at 7:00 AM


Visibility: 10 mi

Pressure: 29.59 "Hg

Humidity: 12%

Dew point: 37 °F

Location of Kuwait CityLocation

Historic Weather in Kuwait City — Graph

°F

Kuwait City temperature yesterday

Maximum temperature yesterday: 118 °F (at 3:00 PM)
Minimum temperature yesterday: 97 °F (at 5:00 AM)
Average temperature yesterday: 108 °F

Past Weeks' High & Low Weather Summary

 TemperatureHumidityPressure
High122 °F (Jul 4, 2:00 PM)23% (Jun 22, 4:00 AM)29.71 "Hg (Jun 22, 4:00 AM)
Low79 °F (Jun 26, 5:00 AM)5% (Jul 3, 3:00 PM)29.47 "Hg (Jun 21, 4:30 PM)
Average102 °F12%29.56 "Hg
* Reported Jun 21 7:00 AM — Jul 6 7:00 AM, Kuwait City, Weather by CustomWeather, © 2015

Note: Actual official high and low records may vary slightly from our data, if they occured in-between our weather recording intervals... More about our weather records

Advertising

Kuwait City weather history for previous 24 hours

 ConditionsComfort  
Time TempWeatherWind HumidityBarometerVisibility
7:00 AM
Mon, Jul 6
99 °FSunny.15 mph12%29.59 "Hg10 mi
6:00 AM97 °FSunny.12 mph12%29.59 "Hg10 mi
5:00 AM97 °FSunny.14 mph12%29.56 "Hg10 mi
4:00 AM97 °FClear.13 mph13%29.56 "Hg10 mi
3:00 AM99 °FClear.15 mph12%29.56 "Hg10 mi
2:00 AM100 °FClear.17 mph11%29.56 "Hg10 mi
1:00 AM100 °FClear.16 mph11%29.59 "Hg3 mi
12:00 AM102 °FClear.20 mph10%29.56 "Hg2 mi
11:00 PM
Sun, Jul 5
104 °FClear.18 mph9%29.59 "Hg2 mi
10:00 PM106 °FLow level haze.23 mph9%29.59 "Hg2 mi
9:00 PM108 °FLow level haze.22 mph8%29.59 "Hg2 mi
8:00 PM109 °FLow level haze.22 mph8%29.56 "Hg2 mi
7:00 PM109 °FLow level haze.23 mph7%29.56 "Hg1 mi
6:00 PM113 °FLow level haze.22 mph8%29.56 "Hg1 mi
5:00 PM115 °FLow level haze.21 mph8%29.53 "Hg3 mi
4:30 PM117 °FLow level haze.22 mph7%29.56 "Hg3 mi
3:00 PM118 °FLow level haze.25 mph6%29.56 "Hg4 mi
2:00 PM117 °FLow level haze.25 mph7%29.59 "Hg4 mi
1:00 PM117 °FLow level haze.25 mph7%29.56 "Hg4 mi
12:00 PM115 °FLow level haze.24 mph8%29.59 "Hg4 mi
11:00 AM113 °FSunny.24 mph8%29.59 "Hg10 mi
10:00 AM111 °FSunny.21 mph9%29.59 "Hg10 mi
9:00 AM106 °FSunny.21 mph11%29.59 "Hg10 mi
8:00 AM102 °FSunny.20 mph12%29.62 "Hg10 mi
Weather by CustomWeather, © 2015

See weather overviewHow to use our weather pages